Weather History for KDFW - August, 2012

Change the Weather History Date:

Saturday, August 11, 2012

  Actual Average Record
Temperature  
Mean Temperature 86 °F 86 °F  
Max Temperature 99 °F 97 °F 112 °F (1936)
Min Temperature 72 °F 76 °F 64 °F (1989)
Degree Days  
Heating Degree Days 0 0  
Month to date heating degree days 0 0  
Since 1 June heating degree days 0 0  
Since 1 July heating degree days 0 0  
Cooling Degree Days 21 21  
Month to date cooling degree days 290 231  
Year to date cooling degree days 2275 1775  
Since 1 June cooling degree days 1588 1353  
Growing Degree Days 34 (Base 50)    
Moisture  
Dew Point 51 °F    
Average Humidity 33    
Maximum Humidity 49    
Minimum Humidity 17    
Precipitation  
Precipitation 0.00 in 0.06 in 3.57 in (1906)
Month to date precipitation T 0.61  
Year to date precipitation 23.30 22.81  
Sea Level Pressure  
Sea Level Pressure 29.90 in    
Wind  
Wind Speed 5 mph (ENE)    
Max Wind Speed 13 mph    
Max Gust Speed 16 mph    
Visibility 10 miles    
Events      
T = Trace of Precipitation, MM = Missing Value Source: NWS Daily Summary

Daily Weather History Graph

Daily Weather History Graph

Search for Another Location

Airport or City:

Trip Planner

Search our weather history database for the weather conditions in past years. The results will help you decide how hot, cold, wet, or windy it might be!

Date:

Astronomy

Aug. 11, 2012 Rise Set
Actual Time 6:48 AM CDT 8:16 PM CDT
Civil Twilight 6:22 AM CDT 8:43 PM CDT
Nautical Twilight 5:51 AM CDT 9:14 PM CDT
Astronomical Twilight 5:18 AM CDT 9:47 PM CDT
Moon 1:23 AM CDT (8/11) 3:46 PM CDT (8/11)
Length of Visible Light 14h 20m
Length of Day
13h 27m
Waning Crescent, 32% of the Moon is Illuminated
Aug 11
Waning Crescent
Aug 17
New
Aug 24
First Quarter
Aug 31
Full
Sep 8
Last Quarter

Hourly Weather History & Observations

Time (CDT) Temp. Heat Index Dew Point Humidity Pressure Visibility Wind Dir Wind Speed Gust Speed Precip Events Conditions
12:53 AM 82.9 °F - 51.1 °F 33% 29.89 in 10.0 mi Calm Calm - N/A   Clear
1:53 AM 79.0 °F - 54.0 °F 42% 29.89 in 10.0 mi NE 4.6 mph - N/A   Clear
2:53 AM 80.1 °F 79.9 °F 53.1 °F 39% 29.90 in 10.0 mi Calm Calm - N/A   Clear
3:53 AM 75.9 °F - 54.0 °F 46% 29.89 in 10.0 mi NNE 6.9 mph - N/A   Clear
4:53 AM 73.0 °F - 54.0 °F 51% 29.90 in 10.0 mi North 5.8 mph - N/A   Clear
5:53 AM 73.9 °F - 53.1 °F 48% 29.93 in 10.0 mi North 3.5 mph - N/A   Clear
6:53 AM 73.0 °F - 52.0 °F 48% 29.93 in 10.0 mi North 8.1 mph - N/A   Partly Cloudy
7:53 AM 75.9 °F - 53.1 °F 45% 29.96 in 10.0 mi NNE 3.5 mph - N/A   Clear
8:53 AM 80.1 °F 79.9 °F 53.1 °F 39% 29.96 in 10.0 mi ENE 8.1 mph - N/A   Clear
9:53 AM 82.0 °F 81.3 °F 54.0 °F 38% 29.96 in 10.0 mi Variable 3.5 mph - N/A   Clear
10:53 AM 87.1 °F 85.1 °F 54.0 °F 32% 29.96 in 10.0 mi ENE 4.6 mph - N/A   Partly Cloudy
11:53 AM 90.0 °F - 51.1 °F 26% 29.96 in 10.0 mi Variable 4.6 mph - N/A   Partly Cloudy
12:53 PM 93.9 °F - 48.9 °F 21% 29.95 in 10.0 mi Calm Calm - N/A   Partly Cloudy
1:53 PM 95.0 °F - 48.0 °F 20% 29.93 in 10.0 mi Variable 6.9 mph - N/A   Scattered Clouds
2:53 PM 96.1 °F - 48.9 °F 20% 29.90 in 10.0 mi NNE 8.1 mph - N/A   Scattered Clouds
3:53 PM 97.0 °F - 48.0 °F 19% 29.88 in 10.0 mi East 8.1 mph - N/A   Scattered Clouds
4:53 PM 96.1 °F - 48.0 °F 19% 29.87 in 10.0 mi Variable 3.5 mph - N/A   Mostly Cloudy
5:53 PM 96.1 °F - 46.9 °F 19% 29.86 in 10.0 mi East 4.6 mph - N/A   Mostly Cloudy
6:53 PM 96.1 °F - 44.1 °F 17% 29.85 in 10.0 mi ESE 8.1 mph - N/A   Mostly Cloudy
7:53 PM 93.0 °F - 46.0 °F 20% 29.86 in 10.0 mi Calm Calm - N/A   Mostly Cloudy
8:53 PM 87.1 °F - 48.9 °F 27% 29.85 in 10.0 mi ESE 4.6 mph - N/A   Partly Cloudy
9:53 PM 87.1 °F - 51.1 °F 29% 29.86 in 10.0 mi East 5.8 mph - N/A   Clear
10:53 PM 87.1 °F - 52.0 °F 30% 29.86 in 10.0 mi ESE 9.2 mph - N/A   Clear
11:53 PM 84.9 °F 83.7 °F 55.9 °F 37% 29.86 in 10.0 mi East 9.2 mph - N/A   Clear